owner,sensor,date,latitude,longitude,relative_humidity,qcFlag 
COMPS,ioos:station:USF.COMPS:C10:1,2016-09-01T00:05:00Z,27.1690,-82.9260,87.74,1111122 
COMPS,ioos:station:USF.COMPS:C10:1,2016-09-01T00:35:00Z,27.1690,-82.9260,87.56,1111122 
COMPS,ioos:station:USF.COMPS:C10:1,2016-09-01T01:05:00Z,27.1690,-82.9260,88.2,1111122 
COMPS,ioos:station:USF.COMPS:C10:1,2016-09-01T01:35:00Z,27.1690,-82.9260,88.38,1111122 
COMPS,ioos:station:USF.COMPS:C10:1,2016-09-01T02:05:00Z,27.1690,-82.9260,89.03,1111122 
COMPS,ioos:station:USF.COMPS:C10:1,2016-09-01T02:35:00Z,27.1690,-82.9260,92.12,1111122 
COMPS,ioos:station:USF.COMPS:C10:1,2016-09-01T03:05:00Z,27.1690,-82.9260,86.14,1111122 
COMPS,ioos:station:USF.COMPS:C10:1,2016-09-01T03:35:00Z,27.1690,-82.9260,85.28,1111122 
COMPS,ioos:station:USF.COMPS:C10:1,2016-09-01T04:05:00Z,27.1690,-82.9260,87.14,1111122 
COMPS,ioos:station:USF.COMPS:C10:1,2016-09-01T04:35:00Z,27.1690,-82.9260,88.43,1111122 
COMPS,ioos:station:USF.COMPS:C10:1,2016-09-01T05:05:00Z,27.1690,-82.9260,87.41,1111122 
COMPS,ioos:station:USF.COMPS:C10:1,2016-09-01T05:35:00Z,27.1690,-82.9260,88.3,1111122 
COMPS,ioos:station:USF.COMPS:C10:1,2016-09-01T06:05:00Z,27.1690,-82.9260,87.67,1111122 
COMPS,ioos:station:USF.COMPS:C10:1,2016-09-01T06:35:00Z,27.1690,-82.9260,87.11,1111122 
COMPS,ioos:station:USF.COMPS:C10:1,2016-09-01T07:05:00Z,27.1690,-82.9260,91.08,1111122 
COMPS,ioos:station:USF.COMPS:C10:1,2016-09-01T07:35:00Z,27.1690,-82.9260,95.23,1111122 
COMPS,ioos:station:USF.COMPS:C10:1,2016-09-01T08:05:00Z,27.1690,-82.9260,92.26,1111122 
COMPS,ioos:station:USF.COMPS:C10:1,2016-09-01T08:35:00Z,27.1690,-82.9260,90.53,1111122 
COMPS,ioos:station:USF.COMPS:C10:1,2016-09-01T09:05:00Z,27.1690,-82.9260,90.88,1111122 
COMPS,ioos:station:USF.COMPS:C10:1,2016-09-01T09:35:00Z,27.1690,-82.9260,91.65,1111122 
COMPS,ioos:station:USF.COMPS:C10:1,2016-09-01T10:05:00Z,27.1690,-82.9260,93.76,1111122 
COMPS,ioos:station:USF.COMPS:C10:1,2016-09-01T10:35:00Z,27.1690,-82.9260,89.31,1111122 
COMPS,ioos:station:USF.COMPS:C10:1,2016-09-01T11:05:00Z,27.1690,-82.9260,89.87,1111122 
COMPS,ioos:station:USF.COMPS:C10:1,2016-09-01T11:35:00Z,27.1690,-82.9260,89.09,1111122 
COMPS,ioos:station:USF.COMPS:C10:1,2016-09-01T12:05:00Z,27.1690,-82.9260,88.8,1111122 
COMPS,ioos:station:USF.COMPS:C10:1,2016-09-01T12:35:00Z,27.1690,-82.9260,89.29,1111122 
COMPS,ioos:station:USF.COMPS:C10:1,2016-09-01T13:05:00Z,27.1690,-82.9260,86.79,1111122 
COMPS,ioos:station:USF.COMPS:C10:1,2016-09-01T13:35:00Z,27.1690,-82.9260,87.07,1111122 
COMPS,ioos:station:USF.COMPS:C10:1,2016-09-01T14:05:00Z,27.1690,-82.9260,92.76,1111122 
COMPS,ioos:station:USF.COMPS:C10:1,2016-09-01T14:35:00Z,27.1690,-82.9260,91.98,1111122 
COMPS,ioos:station:USF.COMPS:C10:1,2016-09-01T15:05:00Z,27.1690,-82.9260,89.76,1111122 
COMPS,ioos:station:USF.COMPS:C10:1,2016-09-01T15:35:00Z,27.1690,-82.9260,89.49,1111122 
COMPS,ioos:station:USF.COMPS:C10:1,2016-09-01T16:05:00Z,27.1690,-82.9260,90.45,1111122 
COMPS,ioos:station:USF.COMPS:C10:1,2016-09-01T16:35:00Z,27.1690,-82.9260,91.11,1111122 
COMPS,ioos:station:USF.COMPS:C10:1,2016-09-01T17:05:00Z,27.1690,-82.9260,91.5,1111122 
COMPS,ioos:station:USF.COMPS:C10:1,2016-09-01T17:35:00Z,27.1690,-82.9260,91.51,1111122 
COMPS,ioos:station:USF.COMPS:C10:1,2016-09-01T18:05:00Z,27.1690,-82.9260,94.09,1111122 
COMPS,ioos:station:USF.COMPS:C10:1,2016-09-01T18:35:00Z,27.1690,-82.9260,89.01,1111122 
COMPS,ioos:station:USF.COMPS:C10:1,2016-09-01T19:05:00Z,27.1690,-82.9260,88.22,1111122 
COMPS,ioos:station:USF.COMPS:C10:1,2016-09-01T19:35:00Z,27.1690,-82.9260,86.97,1111122 
COMPS,ioos:station:USF.COMPS:C10:1,2016-09-01T20:05:00Z,27.1690,-82.9260,87.55,1111122 
COMPS,ioos:station:USF.COMPS:C10:1,2016-09-01T20:35:00Z,27.1690,-82.9260,88.93,1111122 
COMPS,ioos:station:USF.COMPS:C10:1,2016-09-01T21:05:00Z,27.1690,-82.9260,87.87,1111122 
COMPS,ioos:station:USF.COMPS:C10:1,2016-09-01T21:35:00Z,27.1690,-82.9260,97.04,1111122 
COMPS,ioos:station:USF.COMPS:C10:1,2016-09-01T22:05:00Z,27.1690,-82.9260,93.2,1111122 
COMPS,ioos:station:USF.COMPS:C10:1,2016-09-01T22:35:00Z,27.1690,-82.9260,91.0,1111122 
COMPS,ioos:station:USF.COMPS:C10:1,2016-09-01T23:05:00Z,27.1690,-82.9260,95.03,1111122 
COMPS,ioos:station:USF.COMPS:C10:1,2016-09-01T23:35:00Z,27.1690,-82.9260,89.57,1111122 
COMPS,ioos:station:USF.COMPS:C10:1,2016-09-02T00:05:00Z,27.1690,-82.9260,91.22,1111122 
COMPS,ioos:station:USF.COMPS:C10:1,2016-09-02T00:35:00Z,27.1690,-82.9260,87.1,1111122 
COMPS,ioos:station:USF.COMPS:C10:1,2016-09-02T01:05:00Z,27.1690,-82.9260,87.07,1111122 
COMPS,ioos:station:USF.COMPS:C10:1,2016-09-02T01:35:00Z,27.1690,-82.9260,84.17,1111122 
COMPS,ioos:station:USF.COMPS:C10:1,2016-09-02T02:05:00Z,27.1690,-82.9260,88.35,1111122 
COMPS,ioos:station:USF.COMPS:C10:1,2016-09-02T02:35:00Z,27.1690,-82.9260,88.45,1111122 
COMPS,ioos:station:USF.COMPS:C10:1,2016-09-02T03:05:00Z,27.1690,-82.9260,87.83,1111122 
COMPS,ioos:station:USF.COMPS:C10:1,2016-09-02T03:35:00Z,27.1690,-82.9260,89.38,1111122 
COMPS,ioos:station:USF.COMPS:C10:1,2016-09-02T04:05:00Z,27.1690,-82.9260,87.09,1111122 
COMPS,ioos:station:USF.COMPS:C10:1,2016-09-02T04:35:00Z,27.1690,-82.9260,88.33,1111122 
COMPS,ioos:station:USF.COMPS:C10:1,2016-09-02T05:05:00Z,27.1690,-82.9260,88.83,1111122 
COMPS,ioos:station:USF.COMPS:C10:1,2016-09-02T05:35:00Z,27.1690,-82.9260,89.42,1111122 
COMPS,ioos:station:USF.COMPS:C10:1,2016-09-02T06:05:00Z,27.1690,-82.9260,90.29,1111122 
COMPS,ioos:station:USF.COMPS:C10:1,2016-09-02T06:35:00Z,27.1690,-82.9260,89.79,1111122 
COMPS,ioos:station:USF.COMPS:C10:1,2016-09-02T07:05:00Z,27.1690,-82.9260,90.02,1111122 
COMPS,ioos:station:USF.COMPS:C10:1,2016-09-02T07:35:00Z,27.1690,-82.9260,91.0,1111122 
COMPS,ioos:station:USF.COMPS:C10:1,2016-09-02T08:05:00Z,27.1690,-82.9260,90.75,1111122 
COMPS,ioos:station:USF.COMPS:C10:1,2016-09-02T08:35:00Z,27.1690,-82.9260,91.37,1111122 
COMPS,ioos:station:USF.COMPS:C10:1,2016-09-02T09:05:00Z,27.1690,-82.9260,91.75,1111122 
COMPS,ioos:station:USF.COMPS:C10:1,2016-09-02T09:35:00Z,27.1690,-82.9260,91.46,1111122 
COMPS,ioos:station:USF.COMPS:C10:1,2016-09-02T10:05:00Z,27.1690,-82.9260,93.77,1111122 
COMPS,ioos:station:USF.COMPS:C10:1,2016-09-02T10:35:00Z,27.1690,-82.9260,93.08,1111122 
COMPS,ioos:station:USF.COMPS:C10:1,2016-09-02T11:05:00Z,27.1690,-82.9260,91.05,1111122 
COMPS,ioos:station:USF.COMPS:C10:1,2016-09-02T11:35:00Z,27.1690,-82.9260,93.83,1111122 
COMPS,ioos:station:USF.COMPS:C10:1,2016-09-02T12:05:00Z,27.1690,-82.9260,100.08,1111122 
COMPS,ioos:station:USF.COMPS:C10:1,2016-09-02T12:35:00Z,27.1690,-82.9260,99.22,1111122 
COMPS,ioos:station:USF.COMPS:C10:1,2016-09-02T13:05:00Z,27.1690,-82.9260,92.8,1111122 
COMPS,ioos:station:USF.COMPS:C10:1,2016-09-02T13:35:00Z,27.1690,-82.9260,92.89,1111122 
COMPS,ioos:station:USF.COMPS:C10:1,2016-09-02T14:05:00Z,27.1690,-82.9260,96.25,1111122 
COMPS,ioos:station:USF.COMPS:C10:1,2016-09-02T14:35:00Z,27.1690,-82.9260,96.64,1111122 
COMPS,ioos:station:USF.COMPS:C10:1,2016-09-02T15:05:00Z,27.1690,-82.9260,94.96,1111122 
COMPS,ioos:station:USF.COMPS:C10:1,2016-09-02T15:35:00Z,27.1690,-82.9260,96.59,1111122 
COMPS,ioos:station:USF.COMPS:C10:1,2016-09-02T16:05:00Z,27.1690,-82.9260,95.94,1111122 
COMPS,ioos:station:USF.COMPS:C10:1,2016-09-02T16:35:00Z,27.1690,-82.9260,94.09,1111122 
COMPS,ioos:station:USF.COMPS:C10:1,2016-09-02T17:05:00Z,27.1690,-82.9260,93.04,1111122 
COMPS,ioos:station:USF.COMPS:C10:1,2016-09-02T17:35:00Z,27.1690,-82.9260,93.16,1111122 
COMPS,ioos:station:USF.COMPS:C10:1,2016-09-02T18:05:00Z,27.1690,-82.9260,90.48,1111122 
COMPS,ioos:station:USF.COMPS:C10:1,2016-09-02T18:35:00Z,27.1690,-82.9260,88.47,1111122 
COMPS,ioos:station:USF.COMPS:C10:1,2016-09-02T19:05:00Z,27.1690,-82.9260,89.7,1111122 
COMPS,ioos:station:USF.COMPS:C10:1,2016-09-02T19:35:00Z,27.1690,-82.9260,89.73,1111122 
COMPS,ioos:station:USF.COMPS:C10:1,2016-09-02T20:05:00Z,27.1690,-82.9260,91.19,1111122 
COMPS,ioos:station:USF.COMPS:C10:1,2016-09-02T20:35:00Z,27.1690,-82.9260,91.39,1111122 
COMPS,ioos:station:USF.COMPS:C10:1,2016-09-02T21:05:00Z,27.1690,-82.9260,87.87,1111122 
COMPS,ioos:station:USF.COMPS:C10:1,2016-09-02T21:35:00Z,27.1690,-82.9260,92.82,1111122 
COMPS,ioos:station:USF.COMPS:C10:1,2016-09-02T22:05:00Z,27.1690,-82.9260,94.79,1111122 
COMPS,ioos:station:USF.COMPS:C10:1,2016-09-02T22:35:00Z,27.1690,-82.9260,99.22,1111122 
COMPS,ioos:station:USF.COMPS:C10:1,2016-09-02T23:05:00Z,27.1690,-82.9260,98.23,1111122 
COMPS,ioos:station:USF.COMPS:C10:1,2016-09-02T23:35:00Z,27.1690,-82.9260,99.88,1111122 
COMPS,ioos:station:USF.COMPS:C10:1,2016-09-03T00:05:00Z,27.1690,-82.9260,100.07,1111122 
COMPS,ioos:station:USF.COMPS:C10:1,2016-09-03T00:35:00Z,27.1690,-82.9260,99.36,1111122 
COMPS,ioos:station:USF.COMPS:C10:1,2016-09-03T01:05:00Z,27.1690,-82.9260,99.05,1111122 
COMPS,ioos:station:USF.COMPS:C10:1,2016-09-03T01:35:00Z,27.1690,-82.9260,98.63,1111122 
COMPS,ioos:station:USF.COMPS:C10:1,2016-09-03T02:05:00Z,27.1690,-82.9260,97.1,1111122 
COMPS,ioos:station:USF.COMPS:C10:1,2016-09-03T02:35:00Z,27.1690,-82.9260,97.01,1111122 
COMPS,ioos:station:USF.COMPS:C10:1,2016-09-03T03:05:00Z,27.1690,-82.9260,94.07,1111122 
COMPS,ioos:station:USF.COMPS:C10:1,2016-09-03T03:35:00Z,27.1690,-82.9260,95.21,1111122 
COMPS,ioos:station:USF.COMPS:C10:1,2016-09-03T04:05:00Z,27.1690,-82.9260,95.25,1111122 
COMPS,ioos:station:USF.COMPS:C10:1,2016-09-03T04:35:00Z,27.1690,-82.9260,91.05,1111122 
COMPS,ioos:station:USF.COMPS:C10:1,2016-09-03T05:05:00Z,27.1690,-82.9260,91.98,1111122 
COMPS,ioos:station:USF.COMPS:C10:1,2016-09-03T05:35:00Z,27.1690,-82.9260,88.5,1111122 
COMPS,ioos:station:USF.COMPS:C10:1,2016-09-03T06:05:00Z,27.1690,-82.9260,94.29,1111122 
COMPS,ioos:station:USF.COMPS:C10:1,2016-09-03T06:35:00Z,27.1690,-82.9260,94.02,1111122 
COMPS,ioos:station:USF.COMPS:C10:1,2016-09-03T07:05:00Z,27.1690,-82.9260,93.0,1111122 
COMPS,ioos:station:USF.COMPS:C10:1,2016-09-03T07:35:00Z,27.1690,-82.9260,90.55,1111122 
COMPS,ioos:station:USF.COMPS:C10:1,2016-09-03T08:05:00Z,27.1690,-82.9260,93.85,1111122 
COMPS,ioos:station:USF.COMPS:C10:1,2016-09-03T08:35:00Z,27.1690,-82.9260,92.77,1111122 
COMPS,ioos:station:USF.COMPS:C10:1,2016-09-03T09:05:00Z,27.1690,-82.9260,93.01,1111122 
COMPS,ioos:station:USF.COMPS:C10:1,2016-09-03T09:35:00Z,27.1690,-82.9260,92.97,1111122 
COMPS,ioos:station:USF.COMPS:C10:1,2016-09-03T10:05:00Z,27.1690,-82.9260,93.16,1111122 
COMPS,ioos:station:USF.COMPS:C10:1,2016-09-03T10:35:00Z,27.1690,-82.9260,92.99,1111122 
COMPS,ioos:station:USF.COMPS:C10:1,2016-09-03T11:05:00Z,27.1690,-82.9260,93.01,1111122 
COMPS,ioos:station:USF.COMPS:C10:1,2016-09-03T11:35:00Z,27.1690,-82.9260,92.72,1111122 
COMPS,ioos:station:USF.COMPS:C10:1,2016-09-03T12:05:00Z,27.1690,-82.9260,92.98,1111122 
COMPS,ioos:station:USF.COMPS:C10:1,2016-09-03T12:35:00Z,27.1690,-82.9260,91.93,1111122 
COMPS,ioos:station:USF.COMPS:C10:1,2016-09-03T13:05:00Z,27.1690,-82.9260,91.22,1111122 
COMPS,ioos:station:USF.COMPS:C10:1,2016-09-03T13:35:00Z,27.1690,-82.9260,92.64,1111122 
COMPS,ioos:station:USF.COMPS:C10:1,2016-09-03T14:05:00Z,27.1690,-82.9260,93.46,1111122 
COMPS,ioos:station:USF.COMPS:C10:1,2016-09-03T14:35:00Z,27.1690,-82.9260,91.45,1111122 
COMPS,ioos:station:USF.COMPS:C10:1,2016-09-03T15:05:00Z,27.1690,-82.9260,91.33,1111122 
COMPS,ioos:station:USF.COMPS:C10:1,2016-09-03T15:35:00Z,27.1690,-82.9260,89.75,1111122 
COMPS,ioos:station:USF.COMPS:C10:1,2016-09-03T16:05:00Z,27.1690,-82.9260,87.86,1111122 
COMPS,ioos:station:USF.COMPS:C10:1,2016-09-03T16:35:00Z,27.1690,-82.9260,85.44,1111122 
COMPS,ioos:station:USF.COMPS:C10:1,2016-09-03T17:05:00Z,27.1690,-82.9260,85.56,1111122 
COMPS,ioos:station:USF.COMPS:C10:1,2016-09-03T17:35:00Z,27.1690,-82.9260,84.35,1111122 
COMPS,ioos:station:USF.COMPS:C10:1,2016-09-03T18:05:00Z,27.1690,-82.9260,84.82,1111122 
COMPS,ioos:station:USF.COMPS:C10:1,2016-09-03T18:35:00Z,27.1690,-82.9260,86.85,1111122 
COMPS,ioos:station:USF.COMPS:C10:1,2016-09-03T19:05:00Z,27.1690,-82.9260,88.86,1111122 
COMPS,ioos:station:USF.COMPS:C10:1,2016-09-03T19:35:00Z,27.1690,-82.9260,90.0,1111122 
COMPS,ioos:station:USF.COMPS:C10:1,2016-09-03T20:05:00Z,27.1690,-82.9260,94.18,1111122 
COMPS,ioos:station:USF.COMPS:C10:1,2016-09-03T20:35:00Z,27.1690,-82.9260,92.01,1111122 
COMPS,ioos:station:USF.COMPS:C10:1,2016-09-03T21:05:00Z,27.1690,-82.9260,92.01,1111122 
COMPS,ioos:station:USF.COMPS:C10:1,2016-09-03T21:35:00Z,27.1690,-82.9260,91.83,1111122 
COMPS,ioos:station:USF.COMPS:C10:1,2016-09-03T22:05:00Z,27.1690,-82.9260,91.08,1111122 
COMPS,ioos:station:USF.COMPS:C10:1,2016-09-03T22:35:00Z,27.1690,-82.9260,89.06,1111122 
COMPS,ioos:station:USF.COMPS:C10:1,2016-09-03T23:05:00Z,27.1690,-82.9260,89.44,1111122 
COMPS,ioos:station:USF.COMPS:C10:1,2016-09-03T23:35:00Z,27.1690,-82.9260,93.56,1111122 
COMPS,ioos:station:USF.COMPS:C10:1,2016-09-04T00:05:00Z,27.1690,-82.9260,94.29,1111122 
COMPS,ioos:station:USF.COMPS:C10:1,2016-09-04T00:35:00Z,27.1690,-82.9260,94.82,1111122 
COMPS,ioos:station:USF.COMPS:C10:1,2016-09-04T01:05:00Z,27.1690,-82.9260,95.04,1111122 
COMPS,ioos:station:USF.COMPS:C10:1,2016-09-04T01:35:00Z,27.1690,-82.9260,97.35,1111122 
COMPS,ioos:station:USF.COMPS:C10:1,2016-09-04T02:05:00Z,27.1690,-82.9260,99.53,1111122 
COMPS,ioos:station:USF.COMPS:C10:1,2016-09-04T02:35:00Z,27.1690,-82.9260,96.69,1111122 
COMPS,ioos:station:USF.COMPS:C10:1,2016-09-04T03:05:00Z,27.1690,-82.9260,93.93,1111122 
COMPS,ioos:station:USF.COMPS:C10:1,2016-09-04T03:35:00Z,27.1690,-82.9260,92.89,1111122 
COMPS,ioos:station:USF.COMPS:C10:1,2016-09-04T04:05:00Z,27.1690,-82.9260,91.79,1111122 
COMPS,ioos:station:USF.COMPS:C10:1,2016-09-04T04:35:00Z,27.1690,-82.9260,93.49,1111122 
COMPS,ioos:station:USF.COMPS:C10:1,2016-09-04T07:05:00Z,27.1690,-82.9260,99.01,1111122 
COMPS,ioos:station:USF.COMPS:C10:1,2016-09-04T07:35:00Z,27.1690,-82.9260,99.4,1111122 
COMPS,ioos:station:USF.COMPS:C10:1,2016-09-04T08:05:00Z,27.1690,-82.9260,98.22,1111122 
COMPS,ioos:station:USF.COMPS:C10:1,2016-09-04T08:35:00Z,27.1690,-82.9260,99.87,1111122 
COMPS,ioos:station:USF.COMPS:C10:1,2016-09-04T09:05:00Z,27.1690,-82.9260,100.09,1111122 
COMPS,ioos:station:USF.COMPS:C10:1,2016-09-04T09:35:00Z,27.1690,-82.9260,100.08,1111122 
COMPS,ioos:station:USF.COMPS:C10:1,2016-09-04T10:05:00Z,27.1690,-82.9260,100.08,1111122 
COMPS,ioos:station:USF.COMPS:C10:1,2016-09-04T10:35:00Z,27.1690,-82.9260,99.39,1111122 
COMPS,ioos:station:USF.COMPS:C10:1,2016-09-04T11:05:00Z,27.1690,-82.9260,98.41,1111122 
COMPS,ioos:station:USF.COMPS:C10:1,2016-09-04T11:35:00Z,27.1690,-82.9260,97.31,1111122 
COMPS,ioos:station:USF.COMPS:C10:1,2016-09-04T12:05:00Z,27.1690,-82.9260,96.02,1111122 
COMPS,ioos:station:USF.COMPS:C10:1,2016-09-04T12:35:00Z,27.1690,-82.9260,94.07,1111122 
COMPS,ioos:station:USF.COMPS:C10:1,2016-09-04T13:05:00Z,27.1690,-82.9260,94.09,1111122 
COMPS,ioos:station:USF.COMPS:C10:1,2016-09-04T13:35:00Z,27.1690,-82.9260,93.57,1111122 
COMPS,ioos:station:USF.COMPS:C10:1,2016-09-04T14:05:00Z,27.1690,-82.9260,90.73,1111122 
COMPS,ioos:station:USF.COMPS:C10:1,2016-09-04T14:35:00Z,27.1690,-82.9260,90.54,1111122 
COMPS,ioos:station:USF.COMPS:C10:1,2016-09-04T16:05:00Z,27.1690,-82.9260,94.84,1111122 
COMPS,ioos:station:USF.COMPS:C10:1,2016-09-04T16:35:00Z,27.1690,-82.9260,93.69,1111122 
COMPS,ioos:station:USF.COMPS:C10:1,2016-09-04T17:05:00Z,27.1690,-82.9260,94.79,1111122 
COMPS,ioos:station:USF.COMPS:C10:1,2016-09-04T17:35:00Z,27.1690,-82.9260,94.14,1111122 
COMPS,ioos:station:USF.COMPS:C10:1,2016-09-04T18:05:00Z,27.1690,-82.9260,92.95,1111122 
COMPS,ioos:station:USF.COMPS:C10:1,2016-09-04T18:35:00Z,27.1690,-82.9260,91.29,1111122 
COMPS,ioos:station:USF.COMPS:C10:1,2016-09-04T19:05:00Z,27.1690,-82.9260,90.95,1111122 
COMPS,ioos:station:USF.COMPS:C10:1,2016-09-04T19:35:00Z,27.1690,-82.9260,89.96,1111122 
COMPS,ioos:station:USF.COMPS:C10:1,2016-09-04T20:05:00Z,27.1690,-82.9260,92.0,1111122 
COMPS,ioos:station:USF.COMPS:C10:1,2016-09-04T20:35:00Z,27.1690,-82.9260,90.84,1111122 
COMPS,ioos:station:USF.COMPS:C10:1,2016-09-04T21:05:00Z,27.1690,-82.9260,90.0,1111122 
COMPS,ioos:station:USF.COMPS:C10:1,2016-09-04T21:35:00Z,27.1690,-82.9260,89.69,1111122 
COMPS,ioos:station:USF.COMPS:C10:1,2016-09-04T22:05:00Z,27.1690,-82.9260,88.73,1111122 
COMPS,ioos:station:USF.COMPS:C10:1,2016-09-04T22:35:00Z,27.1690,-82.9260,89.06,1111122 
COMPS,ioos:station:USF.COMPS:C10:1,2016-09-04T23:05:00Z,27.1690,-82.9260,91.02,1111122 
COMPS,ioos:station:USF.COMPS:C10:1,2016-09-04T23:35:00Z,27.1690,-82.9260,92.23,1111122 
COMPS,ioos:station:USF.COMPS:C10:1,2016-09-05T01:05:00Z,27.1690,-82.9260,92.98,1111122 
COMPS,ioos:station:USF.COMPS:C10:1,2016-09-05T01:35:00Z,27.1690,-82.9260,93.11,1111122 
COMPS,ioos:station:USF.COMPS:C10:1,2016-09-05T08:05:00Z,27.1690,-82.9260,94.17,1111122 
COMPS,ioos:station:USF.COMPS:C10:1,2016-09-05T08:35:00Z,27.1690,-82.9260,95.69,1111122 
COMPS,ioos:station:USF.COMPS:C10:1,2016-09-05T19:05:00Z,27.1690,-82.9260,90.96,1111122 
COMPS,ioos:station:USF.COMPS:C10:1,2016-09-05T19:35:00Z,27.1690,-82.9260,91.18,1111122 
COMPS,ioos:station:USF.COMPS:C10:1,2016-09-05T20:05:00Z,27.1690,-82.9260,94.79,1111122 
COMPS,ioos:station:USF.COMPS:C10:1,2016-09-05T20:35:00Z,27.1690,-82.9260,91.33,1111122 
COMPS,ioos:station:USF.COMPS:C10:1,2016-09-06T00:05:00Z,27.1690,-82.9260,97.26,1111122 
COMPS,ioos:station:USF.COMPS:C10:1,2016-09-06T00:35:00Z,27.1690,-82.9260,98.29,1111122 
COMPS,ioos:station:USF.COMPS:C10:1,2016-09-06T05:05:00Z,27.1690,-82.9260,98.15,1111122 
COMPS,ioos:station:USF.COMPS:C10:1,2016-09-06T09:05:00Z,27.1690,-82.9260,99.47,1111122 
COMPS,ioos:station:USF.COMPS:C10:1,2016-09-06T09:35:00Z,27.1690,-82.9260,99.85,1111122 
COMPS,ioos:station:USF.COMPS:C10:1,2016-09-06T11:05:00Z,27.1690,-82.9260,100.04,1111122 
COMPS,ioos:station:USF.COMPS:C10:1,2016-09-06T11:35:00Z,27.1690,-82.9260,99.98,1111122 
COMPS,ioos:station:USF.COMPS:C10:1,2016-09-06T14:05:00Z,27.1690,-82.9260,100.01,1111122 
COMPS,ioos:station:USF.COMPS:C10:1,2016-09-06T14:35:00Z,27.1690,-82.9260,99.47,1111122 
COMPS,ioos:station:USF.COMPS:C10:1,2016-09-06T15:05:00Z,27.1690,-82.9260,98.92,1111122 
COMPS,ioos:station:USF.COMPS:C10:1,2016-09-06T20:05:00Z,27.1690,-82.9260,92.57,1111122 
COMPS,ioos:station:USF.COMPS:C10:1,2016-09-06T20:35:00Z,27.1690,-82.9260,92.93,1111122 
COMPS,ioos:station:USF.COMPS:C10:1,2016-09-06T22:05:00Z,27.1690,-82.9260,88.15,1111122 
COMPS,ioos:station:USF.COMPS:C10:1,2016-09-06T22:35:00Z,27.1690,-82.9260,94.94,1111122 
COMPS,ioos:station:USF.COMPS:C10:1,2016-09-06T23:05:00Z,27.1690,-82.9260,92.14,1111122 
COMPS,ioos:station:USF.COMPS:C10:1,2016-09-06T23:35:00Z,27.1690,-82.9260,93.97,1111122 
COMPS,ioos:station:USF.COMPS:C10:1,2016-09-07T03:05:00Z,27.1690,-82.9260,87.08,1111122 
COMPS,ioos:station:USF.COMPS:C10:1,2016-09-07T03:35:00Z,27.1690,-82.9260,95.38,1111122 
COMPS,ioos:station:USF.COMPS:C10:1,2016-09-07T05:05:00Z,27.1690,-82.9260,94.27,1111122 
COMPS,ioos:station:USF.COMPS:C10:1,2016-09-07T05:35:00Z,27.1690,-82.9260,94.6,1111122 
COMPS,ioos:station:USF.COMPS:C10:1,2016-09-07T06:05:00Z,27.1690,-82.9260,97.51,1111122 
COMPS,ioos:station:USF.COMPS:C10:1,2016-09-07T06:35:00Z,27.1690,-82.9260,97.1,1111122 
COMPS,ioos:station:USF.COMPS:C10:1,2016-09-07T08:05:00Z,27.1690,-82.9260,98.73,1111122 
COMPS,ioos:station:USF.COMPS:C10:1,2016-09-07T08:35:00Z,27.1690,-82.9260,99.96,1111122 
COMPS,ioos:station:USF.COMPS:C10:1,2016-09-07T09:05:00Z,27.1690,-82.9260,99.69,1111122 
COMPS,ioos:station:USF.COMPS:C10:1,2016-09-07T09:35:00Z,27.1690,-82.9260,100.07,1111122 
COMPS,ioos:station:USF.COMPS:C10:1,2016-09-07T11:05:00Z,27.1690,-82.9260,100.07,1111122 
COMPS,ioos:station:USF.COMPS:C10:1,2016-09-07T11:35:00Z,27.1690,-82.9260,100.09,1111122 
COMPS,ioos:station:USF.COMPS:C10:1,2016-09-07T13:05:00Z,27.1690,-82.9260,99.98,1111122 
COMPS,ioos:station:USF.COMPS:C10:1,2016-09-07T13:35:00Z,27.1690,-82.9260,99.0,1111122 
COMPS,ioos:station:USF.COMPS:C10:1,2016-09-07T15:05:00Z,27.1690,-82.9260,95.74,1111122 
COMPS,ioos:station:USF.COMPS:C10:1,2016-09-07T15:35:00Z,27.1690,-82.9260,95.15,1111122 
COMPS,ioos:station:USF.COMPS:C10:1,2016-09-07T16:05:00Z,27.1690,-82.9260,93.96,1111122 
COMPS,ioos:station:USF.COMPS:C10:1,2016-09-07T16:35:00Z,27.1690,-82.9260,92.76,1111122 
COMPS,ioos:station:USF.COMPS:C10:1,2016-09-07T17:05:00Z,27.1690,-82.9260,92.23,1111122 
COMPS,ioos:station:USF.COMPS:C10:1,2016-09-07T17:35:00Z,27.1690,-82.9260,91.39,1111122 
COMPS,ioos:station:USF.COMPS:C10:1,2016-09-07T18:05:00Z,27.1690,-82.9260,90.6,1111122 
COMPS,ioos:station:USF.COMPS:C10:1,2016-09-07T18:35:00Z,27.1690,-82.9260,90.6,1111122 
COMPS,ioos:station:USF.COMPS:C10:1,2016-09-07T20:05:00Z,27.1690,-82.9260,96.74,1111122 
COMPS,ioos:station:USF.COMPS:C10:1,2016-09-07T20:35:00Z,27.1690,-82.9260,90.57,1111122 
COMPS,ioos:station:USF.COMPS:C10:1,2016-09-07T22:05:00Z,27.1690,-82.9260,89.38,1111122 
COMPS,ioos:station:USF.COMPS:C10:1,2016-09-07T22:35:00Z,27.1690,-82.9260,90.5,1111122 
COMPS,ioos:station:USF.COMPS:C10:1,2016-09-07T23:05:00Z,27.1690,-82.9260,92.56,1111122 
COMPS,ioos:station:USF.COMPS:C10:1,2016-09-07T23:35:00Z,27.1690,-82.9260,95.68,1111122 
COMPS,ioos:station:USF.COMPS:C10:1,2016-09-08T00:05:00Z,27.1690,-82.9260,96.14,1111122 
COMPS,ioos:station:USF.COMPS:C10:1,2016-09-08T00:35:00Z,27.1690,-82.9260,95.49,1111122 
COMPS,ioos:station:USF.COMPS:C10:1,2016-09-08T05:05:00Z,27.1690,-82.9260,98.4,1111122 
COMPS,ioos:station:USF.COMPS:C10:1,2016-09-08T05:35:00Z,27.1690,-82.9260,98.25,1111122 
COMPS,ioos:station:USF.COMPS:C10:1,2016-09-08T07:05:00Z,27.1690,-82.9260,97.82,1111122 
COMPS,ioos:station:USF.COMPS:C10:1,2016-09-08T07:35:00Z,27.1690,-82.9260,98.13,1111122 
COMPS,ioos:station:USF.COMPS:C10:1,2016-09-08T08:05:00Z,27.1690,-82.9260,99.02,1111122 
COMPS,ioos:station:USF.COMPS:C10:1,2016-09-08T08:35:00Z,27.1690,-82.9260,98.38,1111122 
COMPS,ioos:station:USF.COMPS:C10:1,2016-09-08T15:05:00Z,27.1690,-82.9260,98.8,1111122 
COMPS,ioos:station:USF.COMPS:C10:1,2016-09-08T15:35:00Z,27.1690,-82.9260,98.59,1111122 
COMPS,ioos:station:USF.COMPS:C10:1,2016-09-08T16:05:00Z,27.1690,-82.9260,98.19,1111122 
COMPS,ioos:station:USF.COMPS:C10:1,2016-09-08T16:35:00Z,27.1690,-82.9260,97.3,1111122 
COMPS,ioos:station:USF.COMPS:C10:1,2016-09-08T17:05:00Z,27.1690,-82.9260,96.65,1111122 
COMPS,ioos:station:USF.COMPS:C10:1,2016-09-08T17:35:00Z,27.1690,-82.9260,96.0,1111122 
COMPS,ioos:station:USF.COMPS:C10:1,2016-09-08T19:05:00Z,27.1690,-82.9260,93.03,1111122 
COMPS,ioos:station:USF.COMPS:C10:1,2016-09-08T19:35:00Z,27.1690,-82.9260,93.04,1111122 
COMPS,ioos:station:USF.COMPS:C10:1,2016-09-08T20:05:00Z,27.1690,-82.9260,93.39,1111122 
COMPS,ioos:station:USF.COMPS:C10:1,2016-09-08T20:35:00Z,27.1690,-82.9260,94.84,1111122 
COMPS,ioos:station:USF.COMPS:C10:1,2016-09-08T21:05:00Z,27.1690,-82.9260,95.85,1111122 
COMPS,ioos:station:USF.COMPS:C10:1,2016-09-08T21:35:00Z,27.1690,-82.9260,95.53,1111122 
COMPS,ioos:station:USF.COMPS:C10:1,2016-09-08T22:05:00Z,27.1690,-82.9260,94.34,1111122 
COMPS,ioos:station:USF.COMPS:C10:1,2016-09-08T22:35:00Z,27.1690,-82.9260,94.42,1111122 
COMPS,ioos:station:USF.COMPS:C10:1,2016-09-09T01:05:00Z,27.1690,-82.9260,99.61,1111122 
COMPS,ioos:station:USF.COMPS:C10:1,2016-09-09T01:35:00Z,27.1690,-82.9260,99.56,1111122 
COMPS,ioos:station:USF.COMPS:C10:1,2016-09-09T06:05:00Z,27.1690,-82.9260,100.09,1111122 
COMPS,ioos:station:USF.COMPS:C10:1,2016-09-09T06:35:00Z,27.1690,-82.9260,100.09,1111122 
COMPS,ioos:station:USF.COMPS:C10:1,2016-09-09T10:05:00Z,27.1690,-82.9260,100.09,1111122 
COMPS,ioos:station:USF.COMPS:C10:1,2016-09-09T10:35:00Z,27.1690,-82.9260,100.08,1111122 
COMPS,ioos:station:USF.COMPS:C10:1,2016-09-09T16:05:00Z,27.1690,-82.9260,100.08,1111122 
COMPS,ioos:station:USF.COMPS:C10:1,2016-09-09T16:35:00Z,27.1690,-82.9260,100.09,1111122 
COMPS,ioos:station:USF.COMPS:C10:1,2016-09-09T18:05:00Z,27.1690,-82.9260,100.07,1111122 
COMPS,ioos:station:USF.COMPS:C10:1,2016-09-09T18:35:00Z,27.1690,-82.9260,99.92,1111122 
COMPS,ioos:station:USF.COMPS:C10:1,2016-09-09T19:05:00Z,27.1690,-82.9260,100.01,1111122 
COMPS,ioos:station:USF.COMPS:C10:1,2016-09-09T19:35:00Z,27.1690,-82.9260,100.08,1111122 